OPS 5798 DEB, 903

Orbit data source: Space-Track

OPS 5798 DEB, 903 is space debris in LEO originally from a launch on Tue, 06 Oct 1964 UTC launched from the Air Force Western Test Range (AFWTR). Debris objects in space refer to the collection of defunct objects orbiting the Earth. Examples of debris include non-operational satellites, rocket bodies, and fragments generated from explosions, collisions, or faulty payload assembly.

Loading next visibility...
Identifier
903, 1964-063F
Orbit
LEO
Country
Flag of USUS
Related business
Manufacturer
Unknown
Mission
Spacecraft
Bus & Motor
Unknown
Mass
Unknown
Launch date (UTC)
1964-10-06 (61 years ago)
Launch vehicle
Unknown
Launch site
Air Force Western Test Range (AFWTR)
Object type
Payload
Rocket body
Debris
Shape & HBR
Unknown shape, 0.1 m
Radar Cross Section
Small (<0.1 m²)

Expand to show TLE details & history
Last TLE update: 20 hours ago

TLE from 20 hours ago
0 OPS 5798 DEB
1 00903U 64063F   26037.03932191  .00000907  00000-0  85518-3 0  9993
2 00903  90.2188  68.0042 0024047 144.2280 244.9189 13.80539681 56271
Epoch: 2026-02-06T00:56Z
TLE epoch observation values (Epoch: 2026-02-06T00:56:37.413Z)
Latitude
28.94122°
Longitude
-82.45497°
Altitude
973.17 km
Speed
7.364 km/s
True Right ascension
04h 31m 32s
True Declination
28° 48' 00"
Sunlit
Object was in daylight at epoch
Visualization orbit readout
Latitude
Unknown
Longitude
Unknown
Altitude
Unknown
Speed
Unknown
Apparent Right ascension
Unknown
Apparent Declination
Unknown
Sunlit
N/A
Visualization observer readout
Local Sidereal Time
22:42:22
Azimuth
Unknown
Elevation
Unknown
Doppler factor
Unknown
Orbital elements
Apogee altitude
976.622 km
Perigee altitude
941.335 km
Semi-major axis
7,337.116 km
Eccentricity
0.0024
Inclination
90.2188°
RAAN
68.0042°
Arg. of periapsis
144.228°
True anomaly
244.66964°
Mean anomaly
244.9189°
Eccentric anomaly
244.79424°
Mean motion
3.45347 °/min
Orbital period
104.24 mins
BSTAR
0.00085518
Loading maneuver chart data...
Computing Atmospheric mass density...
Loading historical data...
Loading historical data...
Loading historical data...
Loading historical data...
Loading historical data...
Loading historical data...
Loading historical data...

Documentation

Showing up to 5 results
|